Location: Schommer Observatory
(40.5200°N, 74.4500°W)
Time: 12:07:01
(UTC-04:00)

Envisat - Pass Details

Date: 15 October 2017
Orbit: 764 x 766 km, 98.2° (Epoch: 20 October)

Event Time Altitude Azimuth Distance (km) Brightness Sun altitude
Exits shadow 21:23:15 30° 309° (NW) 1,353 4.7 -35.6°
Drops below altitude 10° 21:26:09 10° 333° (NNW) 2,309 6.0 -36.2°
Sets 21:28:35 0° 340° (NNW) 3,239 6.7 -36.6°
